[keps] orb10259.2l.amsat

Keith Pugh w5iu at swbell.net
Sun Sep 19 14:21:57 PDT 2010


SB KEPS @ AMSAT  $ORB10259.N
2Line Orbital Elements 10259.AMSAT

HR AMSAT ORBITAL ELEMENTS FOR AMATEUR SATELLITES IN NASA FORMAT
FROM WA5QGD FORT WORTH,TX September 16, 2010
Send Subscribe/unsubscribe to KEPS at
http://www.amsat.org/mailman/listinfo/keps
BID: ORB10259.N

DECODE 2-LINE ELSETS WITH THE FOLLOWING KEY:
1 AAAAAU 00  0  0 BBBBB.BBBBBBBB  .CCCCCCCC  00000-0  00000-0 0  DDDZ
2 AAAAA EEE.EEEE FFF.FFFF GGGGGGG HHH.HHHH III.IIII JJ.JJJJJJJJKKKKKZ
KEY: A-CATALOGNUM B-EPOCHTIME C-DECAY D-ELSETNUM E-INCLINATION F-RAAN
G-ECCENTRICITY H-ARGPERIGEE I-MNANOM J-MNMOTION K-ORBITNUM Z-CHECKSUM

TO ALL RADIO AMATEURS BT

AO-07
1 07530U 74089B   10258.62315395 -.00000027  00000-0  10000-3 0 08817
2 07530 101.4013 270.9793 0012095 096.4317 263.8130 12.53579594639787
FO-29
1 24278U 96046B   10258.91649268  .00000065  00000-0  10443-3 0 04013
2 24278 098.5156 075.5171 0349805 248.4411 107.9123 13.52952926695375
SO-33
1 25509U 98061B   10258.63155429  .00000063  00000-0  14408-5 0 07962
2 25509 031.4362 357.0458 0353359 000.6505 359.4548 14.28327698620992
RS-22
1 27939U 03042A   10259.67565767  .00000018  00000-0  12139-4 0  5507
2 27939 097.8784 121.2185 0014337 127.2456 233.0057 14.63451434372333
VO-52
1 28650U 05017B   10259.29573543  .00000087  00000-0  17403-4 0  5988
2 28650 097.6811 309.1308 0026838 341.2433 018.7863 14.81805035290184
SO-67
1 35870U 09049F   10259.89380163  .00000634  00000-0  31557-4 0  1125
2 35870 097.3221 306.5607 0004149 119.1579 343.9559 15.21048720 55397
HO-68
1 36122U 09072B   10259.76193637 -.00000045  00000-0  00000 0 0  6784
2 36122 100.4600 319.2254 0007765 126.8836 233.2992 13.16281749 36261
UO-11
1 14781U 84021B   10259.30491198 -.00000055  00000-0 -14072-6 0  3400
2 14781 098.0441 311.2749 0008361 309.7917 050.2620 14.79832796425282
AO-16
1 20439U 90005D   10259.38106007  .00000002  00000-0  16401-4 0  9958
2 20439 098.3421 213.7421 0009981 255.5278 104.4805 14.31873671 78433
LO-19
1 20442U 90005G   10259.43403797 -.00000038  00000-0  12684-5 0  9044
2 20442 098.3045 219.2280 0010960 249.5354 110.4660 14.32103381 78611
AO-27
1 22825U 93061C   10259.78862082  .00000124  00000-0  65464-4 0  6270
2 22825 098.4935 205.4031 0008493 005.9303 354.1975 14.29308533885135
IO-26
1 22826U 93061D   10258.71779011  .00000027  00000-0  27215-4 0 03677
2 22826 098.4879 204.9270 0009047 004.3468 355.7793 14.29565060885093
GO-32
1 25397U 98043D   10259.77898044 -.00000118  00000-0 -34443-4 0  2856
2 25397 098.3156 262.1974 0001615 034.8754 325.2512 14.23184172633077
NO-44
1 26931U 01043C   10259.64210238  .00000080  00000-0  63629-4 0  5592
2 26931 067.0532 328.3450 0005354 270.9869 089.0620 14.29610626467828
SO-50
1 27607U 02058C   10259.00511672  .00000035  00000-0  27199-4 0  2708
2 27607 064.5573 080.6605 0041001 037.4308 322.9652 14.71575262415740
CO-55
1 27844U 03031E   10258.59315469  .00000061  00000-0  48468-4 0  9362
2 27844 098.7112 266.2776 0009013 273.4422 086.5714 14.20729403373925
CO-57
1 27848U 03031J   10258.98816857  .00000036  00000-0  37373-4 0  8832
2 27848 098.7156 265.7777 0008983 277.2990 082.7179 14.20520261373934
AO-51
1 28375U 04025K   10259.47770074  .00000022  00000-0  19356-4 0  7753
2 28375 098.0697 247.8129 0083177 179.7507 180.3743 14.40698597326652
GENESAT1
1 29655U 06058C   10216.61700559  .10637092  69904-5  33715-3 0  2265
2 29655 040.0059 067.3006 0005079 297.8744 064.7087 16.44862838207776
CP3
1 31129U 07012N   10258.67853945 -.00000161  00000-0 -26287-4 0  6760
2 31129 097.9299 293.3723 0101044 313.6233 045.6609 14.52300893180995
CO-65
1 32785U 08021C   10259.19739623  .00000012  00000-0  81851-5 0  7857
2 32785 097.8865 322.8240 0015261 353.2735 006.8346 14.81713160128969
KKS-1
1 33493U 09002B   10259.86643576  .00000555  00000-0  78441-4 0  8582
2 33493 098.0957 020.1938 0019391 201.5684 158.4721 14.81098310 89059
SOHLA-1
1 33496U 09002E   10259.40277110  .00000029  00000-0  13089-4 0  2051
2 33496 098.0635 007.3247 0005578 276.8333 083.2253 14.69514923 88270
TISAT-1
1 36799U 10035E   10259.72239900  .00000302  00000-0  46983-4 0  1319
2 36799 098.1394 319.8165 0016728 080.2781 280.0319 14.80165796  9855
STUDSAT
1 36801U 10035G   10258.73310416  .00000872  00000-0  12332-3 0   642
2 36801 098.1409 318.7510 0015231 071.4970 288.7894 14.79641816  9705
NOAA-10
1 16969U 86073A   10258.71721888 -.00000209  00000-0 -67231-4 0 02059
2 16969 098.6511 286.8115 0011712 310.4976 049.5154 14.27425645248491
NOAA-11
1 19531U 88089A   10258.82538880 -.00000216  00000-0 -89359-4 0 02150
2 19531 098.7668 346.2989 0010705 249.8228 110.1795 14.14934147133957
NOAA-12
1 21263U 91032A   10258.74715395  .00000036  00000-0  33993-4 0 07095
2 21263 098.7648 271.8952 0011507 264.8435 095.1418 14.25653618005305
MET-3/5
1 21655U 91056A   10259.64672143  .00000051  00000-0  10000-3 0  9158
2 21655 082.5538 244.0072 0014816 117.7097 242.5502 13.17022118917714
MET-2/21
1 22782U 93055A   10259.47891226  .00000056  00000-0  36989-4 0  8853
2 22782 082.5503 180.0200 0023049 143.0298 217.2451 13.83649442860709
OKEAN-4
1 23317U 94066A   10259.75663716  .00000325  00000-0  37131-4 0  3419
2 23317 082.5376 268.3867 0020614 303.3370 056.5871 14.82859704860027
NOAA-14
1 23455U 94089A   10258.72925089  .00000017  00000-0  32298-4 0 01973
2 23455 098.8735 338.8196 0009297 344.5291 015.5584 14.13794120810294
NOAA-15
1 25338U 98030A   10258.88196748 -.00000084  00000-0 -17206-4 0 05235
2 25338 098.6282 244.2200 0010823 165.9031 194.2457 14.24853589641665
RESURS
1 25394U 98043A   10259.60875017 -.00000021  00000-0  86827-5 0  6041
2 25394 098.3048 272.7098 0001293 002.4732 357.6447 14.24209108633363
FENGYUN1
1 25730U 99025A   10259.39252328  .00000451  00000-0  28831-3 0  1372
2 25730 098.7924 221.9951 0022805 009.8585 350.3058 14.08281412584528
OKEAN-0
1 25860U 99039A   10258.51916153  .00000057  00000-0  16131-4 0 01011
2 25860 097.8439 228.1996 0001621 104.9131 255.2257 14.73661637600209
NOAA-16
1 26536U 00055A   10258.82053546  .00000263  00000-0  16745-3 0 09998
2 26536 099.1685 278.4174 0011326 084.4304 275.8138 14.12577200514622
NOAA-17
1 27453U 02032A   10258.76691424 -.00000091  00000-0 -21207-4 0 09935
2 27453 098.4210 305.5224 0011011 229.6143 130.4076 14.24189092427597
NOAA-18
1 28654U 05018A   10258.82959189  .00000425  00000-0  25900-3 0 04812
2 28654 098.9569 204.8624 0014669 154.9296 205.2587 14.11390285274221
NOAA-19
1 33591U 09005A   10258.83739954  .00000065  00000-0  60370-4 0 06773
2 33591 098.7935 199.0531 0014898 035.3180 324.9002 14.11082894082695
HUBBLE
1 20580U 90037B   10259.53929104  .00000450  00000-0  21596-4 0  6458
2 20580 028.4708 003.4610 0003296 094.9109 265.1874 15.01035155918492
ISS
1 25544U 98067A   10260.02223999  .00008255  00000-0  68924-4 0  9044
2 25544 051.6448 120.7352 0006123 002.1789 157.5240 15.71056674677915
CO-58
1 28895U 05043F   10259.68526459  .00000124  00000-0  35244-4 0  6824
2 28895 097.9991 141.0648 0017780 002.6024 357.5276 14.59932551260332
FALCON
1 30776U 07006E   10259.90585996  .00000814  00000-0  61060-4 0  9163
2 30776 035.4333 207.3925 0001503 278.8000 081.2555 15.03813330193879
MAST
1 31126U 07012K   10259.56622271  .00000162  00000-0  47258-4 0  9642
2 31126 097.9285 296.8151 0093916 302.5944 056.6262 14.53619532181334
CAPE1
1 31130U 07012P   10258.67254007 -.00000026  00000-0  48010-5 0 09857
2 31130 097.9301 293.2008 0101794 314.0671 045.2157 14.52220148180795
COMPASS
1 32787U 08021E   10258.30926576  .00000131  00000-0  23191-4 0 07793
2 32787 097.8842 321.7890 0015922 356.8077 003.3026 14.81962838128849
AAUSAT2
1 32788U 08021F   10258.84358495  .00000088  00000-0  17750-4 0 07696
2 32788 097.8854 322.4647 0015313 356.6649 003.4397 14.82110673128933
DO-64
1 32789U 08021G   10258.70733770  .00000581  00000-0  79266-4 0  7862
2 32789 097.8922 322.9098 0015369 354.2908 005.8098 14.82301957128917
CO-66
1 32791U 08021J   10259.69530258  .00000605  00000-0  83370-4 0  7712
2 32791 097.8857 323.1575 0016256 350.3055 009.7839 14.81737217129004
RS-30
1 32953U 08025A   10259.64559147  .00000010  00000-0  00000 0 0   503
2 32953 082.5066 332.8129 0017509 262.6074 097.3020 12.43007861105108
TACSAT-3
1 35001U 09028A   10258.83331781  .00005555  00000-0  12866-3 0  3831
2 35001 040.4555 029.2772 0022722 322.9498 036.9748 15.42659535 74637
PHARMSAT
1 35002U 09028B   10259.53530501  .00005003  00000-0  11454-3 0  3617
2 35002 040.4700 022.7646 0025314 330.0276 029.9098 15.43097379 74769
HAWKSAT1
1 35003U 09028C   10259.49521105  .00012271  00000-0  23802-3 0  3911
2 35003 040.4601 014.8147 0023425 349.0278 011.0031 15.47113149 74858
CP6
1 35004U 09028D   10258.72445252  .00013923  00000-0  25889-3 0  3861
2 35004 040.4614 017.7457 0022518 349.0670 010.9647 15.48271484 74744
AEROCUB3
1 35005U 09028E   10259.64397097  .00062138  00000-0  78474-3 0  4521
2 35005 040.4690 003.7597 0023554 018.7578 341.4152 15.58272560 74983
CASTOR
1 35694U 09038F   10230.44082147  .07179566  12689-4  99310-4 0  6559
2 35694 051.5930 222.0149 0004218 308.0851 053.0105 16.48877011 61107
METEOR-M
1 35865U 09049A   10259.61740320  .00000176  00000-0  10000-3 0  6624
2 35865 098.7488 312.7189 0003224 094.3781 265.7773 14.21831598 51710
RS-38
1 35869U 09049E   10259.86039289  .00000177  00000-0  10000-3 0  6744
2 35869 098.7477 312.9981 0005454 096.1064 264.0718 14.21988616 51754
/EX



More information about the Keps mailing list